{"data":{"norad_id":59178,"epoch":"2026-09-20T21:28:52.313088Z","epoch_age_seconds":124638,"freshness":"FRESH","line1":"1 59178U 24045A   26263.89504992  .00002409  00000+0  97013-4 0  9998","line2":"2 59178  43.0027  66.8310 0000994 286.8473  73.2270 15.27591772 79386","mean_motion":15.27591772,"eccentricity":9.94e-5,"inclination_deg":43.0027,"raan_deg":66.831,"arg_perigee_deg":286.8473,"mean_anomaly_deg":73.227,"bstar":9.7013e-5,"rev_number":7938,"period_min":94.266022270772,"perigee_km":482.33184826891,"apogee_km":483.69584505723,"semimajor_km":6861.1508466631,"source":"CELESTRAK","updated_at":"2026-09-21T09:00:34.061520Z"}}